| time (UTC) | temp C | wind direction | speed KPH | gust KPH | rain 1hr cm | rain 24hr cm | rain mn cm | humidity % | barometer mb |
| 20260502200022 | 18 | 268 | 27.4 | 37.0 | 0.00 | 0.00 | 0.00 | 29 | 1012.7 |
| 20260502195520 | 18 | 264 | 33.8 | 45.1 | 0.00 | 0.00 | 0.00 | 29 | 1012.4 |
| 20260502195015 | 18 | 223 | 14.5 | 25.7 | 0.00 | 0.00 | 0.00 | 30 | 1012.8 |
| 20260502194512 | 18 | 227 | 27.4 | 38.6 | 0.00 | 0.00 | 0.00 | 28 | 1012.8 |
| 20260502194008 | 18 | 213 | 19.3 | 29.0 | 0.00 | 0.00 | 0.00 | 29 | 1012.7 |
| 20260502193506 | 18 | 241 | 19.3 | 20.9 | 0.00 | 0.00 | 0.00 | 30 | 1013.1 |
| 20260502193002 | 18 | 227 | 33.8 | 37.0 | 0.00 | 0.00 | 0.00 | 31 | 1012.9 |
| 20260502192458 | 17 | 232 | 17.7 | 35.4 | 0.00 | 0.00 | 0.00 | 30 | 1013.2 |
| 20260502191955 | 17 | 242 | 16.1 | 30.6 | 0.00 | 0.00 | 0.00 | 30 | 1013.4 |
| 20260502191453 | 17 | 287 | 9.7 | 20.9 | 0.00 | 0.00 | 0.00 | 30 | 1013.4 |
| 20260502190950 | 17 | 218 | 20.9 | 32.2 | 0.00 | 0.00 | 0.00 | 30 | 1013.5 |
| 20260502190448 | 17 | 224 | 24.1 | 29.0 | 0.00 | 0.00 | 0.00 | 31 | 1013.6 |
| 20260502185944 | 17 | 292 | 20.9 | 33.8 | 0.00 | 0.00 | 0.00 | 30 | 1013.9 |
| 20260502185439 | 17 | 212 | 17.7 | 22.5 | 0.00 | 0.00 | 0.00 | 30 | 1013.8 |
| 20260502184936 | 17 | 253 | 24.1 | 40.2 | 0.00 | 0.00 | 0.00 | 31 | 1013.8 |
| 20260502184431 | 16 | 210 | 11.3 | 35.4 | 0.00 | 0.00 | 0.00 | 30 | 1014.1 |
| 20260502183928 | 16 | 243 | 29.0 | 41.8 | 0.00 | 0.00 | 0.00 | 31 | 1013.9 |
| 20260502183425 | 17 | 227 | 27.4 | 40.2 | 0.00 | 0.00 | 0.00 | 29 | 1014.0 |
| 20260502182920 | 16 | 229 | 17.7 | 33.8 | 0.00 | 0.00 | 0.00 | 30 | 1014.3 |
| 20260502182416 | 16 | 228 | 25.7 | 35.4 | 0.00 | 0.00 | 0.00 | 33 | 1014.2 |
| 20260502181912 | 16 | 241 | 14.5 | 20.9 | 0.00 | 0.00 | 0.00 | 30 | 1014.6 |
| 20260502181411 | 16 | 257 | 16.1 | 27.4 | 0.00 | 0.00 | 0.00 | 33 | 1014.6 |
| 20260502180909 | 16 | 244 | 27.4 | 37.0 | 0.00 | 0.00 | 0.00 | 32 | 1014.3 |
| 20260502180406 | 16 | 206 | 14.5 | 20.9 | 0.00 | 0.00 | 0.00 | 31 | 1014.7 |
| 20260502170330 | 14 | 275 | 11.3 | 19.3 | 0.00 | 0.00 | 0.00 | 32 | 1015.8 |
| 20260502164318 | 13 | 258 | 25.7 | 29.0 | 0.00 | 0.00 | 0.00 | 35 | 1016.1 |
| 20260502163813 | 13 | 271 | 16.1 | 32.2 | 0.00 | 0.00 | 0.00 | 34 | 1016.1 |
| 20260502163310 | 13 | 235 | 20.9 | 24.1 | 0.00 | 0.00 | 0.00 | 34 | 1016.4 |
| 20260502162808 | 13 | 265 | 20.9 | 33.8 | 0.00 | 0.00 | 0.00 | 34 | 1016.1 |
| 20260502162305 | 13 | 227 | 27.4 | 32.2 | 0.00 | 0.00 | 0.00 | 34 | 1016.5 |
| 20260502161800 | 13 | 222 | 24.1 | 37.0 | 0.00 | 0.00 | 0.00 | 34 | 1016.5 |
| 20260502161257 | 13 | 224 | 25.7 | 30.6 | 0.00 | 0.00 | 0.00 | 36 | 1016.4 |
| 20260502160755 | 13 | 222 | 20.9 | 30.6 | 0.00 | 0.00 | 0.00 | 34 | 1016.5 |
| 20260502160254 | 12 | 242 | 22.5 | 32.2 | 0.00 | 0.00 | 0.00 | 36 | 1016.6 |
| 20260502152229 | 11 | 247 | 16.1 | 27.4 | 0.00 | 0.00 | 0.00 | 37 | 1017.0 |
| 20260502151727 | 11 | 234 | 20.9 | 29.0 | 0.00 | 0.00 | 0.00 | 39 | 1017.2 |
| 20260502151223 | 11 | 245 | 20.9 | 32.2 | 0.00 | 0.00 | 0.00 | 38 | 1017.1 |
| 20260502150721 | 11 | 230 | 32.2 | 32.2 | 0.00 | 0.00 | 0.00 | 40 | 1017.2 |
| 20260502150217 | 11 | 242 | 22.5 | 27.4 | 0.00 | 0.00 | 0.00 | 41 | 1017.2 |
| 20260502130606 | 5 | 257 | 17.7 | 19.3 | 0.00 | 0.00 | 0.00 | 63 | 1017.5 |
| 20260502130104 | 5 | 249 | 14.5 | 17.7 | 0.00 | 0.00 | 0.00 | 64 | 1017.6 |
| 20260502123549 | 3 | 240 | 8.0 | 11.3 | 0.00 | 0.00 | 0.00 | 70 | 1017.5 |
| 20260502123045 | 3 | 250 | 8.0 | 8.0 | 0.00 | 0.00 | 0.00 | 71 | 1017.6 |
| 20260502122542 | 3 | 241 | 6.4 | 6.4 | 0.00 | 0.00 | 0.00 | 73 | 1017.6 |
| 20260502122039 | 2 | 256 | 6.4 | 8.0 | 0.00 | 0.00 | 0.00 | 73 | 1017.8 |
| 20260502121537 | 2 | 259 | 4.8 | 4.8 | 0.00 | 0.00 | 0.00 | 74 | 1017.6 |
| 20260502121034 | 2 | 253 | 3.2 | 4.8 | 0.00 | 0.00 | 0.00 | 75 | 1017.6 |
| 20260502120530 | 1 | 260 | 3.2 | 6.4 | 0.00 | 0.00 | 0.00 | 75 | 1017.7 |
| 20260502115525 | 1 | 266 | 4.8 | 6.4 | 0.00 | 0.00 | 0.00 | 76 | 1017.6 |
| 20260502115021 | 1 | 262 | 4.8 | 4.8 | 0.00 | 0.00 | 0.00 | 76 | 1017.3 |
| 20260502114518 | 1 | 260 | 6.4 | 6.4 | 0.00 | 0.00 | 0.00 | 75 | 1017.5 |
| 20260502114014 | 0 | 263 | 4.8 | 6.4 | 0.00 | 0.00 | 0.00 | 76 | 1017.8 |
| 20260502113512 | 0 | 254 | 6.4 | 6.4 | 0.00 | 0.00 | 0.00 | 76 | 1017.5 |
| 20260502113011 | 0 | 253 | 6.4 | 6.4 | 0.00 | 0.00 | 0.00 | 76 | 1017.5 |
| 20260502112508 | 0 | 261 | 4.8 | 6.4 | 0.00 | 0.00 | 0.00 | 77 | 1017.5 |
| 20260502112005 | 0 | 249 | 4.8 | 6.4 | 0.00 | 0.00 | 0.00 | 76 | 1017.8 |
| 20260502111503 | 0 | 254 | 6.4 | 6.4 | 0.00 | 0.00 | 0.00 | 76 | 1017.9 |
| 20260502111000 | 0 | 256 | 6.4 | 6.4 | 0.00 | 0.00 | 0.00 | 76 | 1017.7 |
| 20260502110457 | 0 | 258 | 6.4 | 8.0 | 0.00 | 0.00 | 0.00 | 76 | 1017.7 |
| 20260502105955 | 0 | 255 | 6.4 | 8.0 | 0.00 | 0.00 | 0.00 | 75 | 1017.7 |
| 20260502105452 | 0 | 255 | 6.4 | 8.0 | 0.00 | 0.00 | 0.00 | 75 | 1017.6 |
| 20260502104950 | 0 | 256 | 8.0 | 8.0 | 0.00 | 0.00 | 0.00 | 74 | 1017.8 |
| 20260502104447 | 0 | 264 | 6.4 | 6.4 | 0.00 | 0.00 | 0.00 | 75 | 1017.8 |
| 20260502103944 | 0 | 260 | 4.8 | 6.4 | 0.00 | 0.00 | 0.00 | 74 | 1017.9 |
| 20260502103441 | 0 | 259 | 6.4 | 6.4 | 0.00 | 0.00 | 0.00 | 75 | 1017.7 |
| 20260502102938 | 0 | 260 | 4.8 | 4.8 | 0.00 | 0.00 | 0.00 | 75 | 1018.1 |
| 20260502102435 | 0 | 258 | 4.8 | 9.7 | 0.00 | 0.00 | 0.00 | 74 | 1018.1 |
| 20260502101932 | 0 | 259 | 8.0 | 9.7 | 0.00 | 0.00 | 0.00 | 74 | 1017.9 |
| 20260502101431 | 0 | 266 | 6.4 | 8.0 | 0.00 | 0.00 | 0.00 | 73 | 1018.1 |
| 20260502100928 | 1 | 264 | 6.4 | 8.0 | 0.00 | 0.00 | 0.00 | 73 | 1018.1 |
| 20260502100427 | 0 | 265 | 6.4 | 8.0 | 0.00 | 0.00 | 0.00 | 74 | 1018.1 |
| 20260502091401 | 1 | 258 | 4.8 | 8.0 | 0.00 | 0.00 | 0.00 | 73 | 1017.6 |
| 20260502090859 | 1 | 249 | 6.4 | 8.0 | 0.00 | 0.00 | 0.00 | 72 | 1017.8 |
| 20260502090355 | 1 | 254 | 6.4 | 8.0 | 0.00 | 0.00 | 0.00 | 71 | 1017.7 |
| 20260502071250 | 1 | 255 | 6.4 | 6.4 | 0.00 | 0.00 | 0.00 | 71 | 1017.7 |
| 20260502070748 | 1 | 256 | 4.8 | 6.4 | 0.00 | 0.00 | 0.00 | 70 | 1017.8 |
| 20260502070245 | 1 | 248 | 6.4 | 8.0 | 0.00 | 0.00 | 0.00 | 70 | 1017.9 |
| 20260502065744 | 1 | 248 | 9.7 | 9.7 | 0.00 | 0.00 | 0.00 | 71 | 1018.1 |
| 20260502065242 | 1 | 246 | 6.4 | 6.4 | 0.00 | 0.00 | 0.00 | 70 | 1018.2 |
| 20260502064740 | 1 | 257 | 9.7 | 9.7 | 0.00 | 0.00 | 0.00 | 70 | 1018.1 |
| 20260502064238 | 1 | 251 | 6.4 | 8.0 | 0.00 | 0.00 | 0.00 | 70 | 1018.1 |
| 20260502063735 | 2 | 246 | 6.4 | 8.0 | 0.00 | 0.00 | 0.00 | 69 | 1018.3 |
| 20260502063233 | 2 | 250 | 8.0 | 9.7 | 0.00 | 0.00 | 0.00 | 68 | 1018.1 |
| 20260502062730 | 2 | 251 | 6.4 | 9.7 | 0.00 | 0.00 | 0.00 | 69 | 1018.3 |
| 20260502062227 | 1 | 247 | 8.0 | 8.0 | 0.00 | 0.00 | 0.00 | 69 | 1018.2 |
| 20260502061726 | 2 | 250 | 8.0 | 9.7 | 0.00 | 0.00 | 0.00 | 66 | 1018.4 |
| 20260502061223 | 2 | 244 | 6.4 | 6.4 | 0.00 | 0.00 | 0.00 | 66 | 1018.3 |
| 20260502060718 | 2 | 239 | 6.4 | 6.4 | 0.00 | 0.00 | 0.00 | 66 | 1018.1 |
| 20260502060214 | 2 | 245 | 6.4 | 6.4 | 0.00 | 0.00 | 0.00 | 66 | 1018.1 |
| 20260502055712 | 2 | 246 | 6.4 | 8.0 | 0.00 | 0.00 | 0.00 | 66 | 1018.1 |
| 20260502055209 | 2 | 253 | 8.0 | 9.7 | 0.00 | 0.00 | 0.00 | 65 | 1017.9 |
| 20260502054709 | 2 | 261 | 6.4 | 8.0 | 0.00 | 0.00 | 0.00 | 64 | 1018.3 |
| 20260502054206 | 2 | 249 | 6.4 | 8.0 | 0.00 | 0.00 | 0.00 | 64 | 1018.5 |
| 20260502053703 | 2 | 253 | 6.4 | 8.0 | 0.00 | 0.00 | 0.00 | 64 | 1017.9 |
| 20260502053200 | 2 | 255 | 6.4 | 6.4 | 0.00 | 0.00 | 0.00 | 64 | 1018.4 |
| 20260502052658 | 2 | 252 | 6.4 | 6.4 | 0.00 | 0.00 | 0.00 | 64 | 1018.2 |
| 20260502052156 | 2 | 239 | 6.4 | 6.4 | 0.00 | 0.00 | 0.00 | 64 | 1018.3 |
| 20260502051654 | 2 | 249 | 6.4 | 8.0 | 0.00 | 0.00 | 0.00 | 64 | 1018.3 |
| 20260502051152 | 2 | 241 | 6.4 | 6.4 | 0.00 | 0.00 | 0.00 | 64 | 1018.2 |
| 20260502050648 | 2 | 244 | 9.7 | 9.7 | 0.00 | 0.00 | 0.00 | 64 | 1018.2 |
| 20260502050145 | 2 | 251 | 6.4 | 8.0 | 0.00 | 0.00 | 0.00 | 63 | 1018.3 |
| 20260502045641 | 2 | 251 | 6.4 | 6.4 | 0.00 | 0.00 | 0.00 | 63 | 1017.9 |
| 20260502045139 | 3 | 255 | 6.4 | 8.0 | 0.00 | 0.00 | 0.00 | 62 | 1018.1 |
| 20260502044635 | 3 | 261 | 6.4 | 6.4 | 0.00 | 0.00 | 0.00 | 62 | 1018.1 |
| 20260502044131 | 3 | 265 | 6.4 | 6.4 | 0.00 | 0.00 | 0.00 | 63 | 1018.1 |
| 20260502043630 | 2 | 257 | 4.8 | 6.4 | 0.00 | 0.00 | 0.00 | 65 | 1018.1 |
| 20260502043127 | 2 | 253 | 3.2 | 4.8 | 0.00 | 0.00 | 0.00 | 64 | 1018.3 |
| 20260502042626 | 3 | 259 | 3.2 | 4.8 | 0.00 | 0.00 | 0.00 | 63 | 1018.1 |
| 20260502042124 | 3 | 255 | 4.8 | 4.8 | 0.00 | 0.00 | 0.00 | 63 | 1018.3 |
| 20260502041621 | 3 | 258 | 4.8 | 4.8 | 0.00 | 0.00 | 0.00 | 61 | 1018.3 |
| 20260502041118 | 3 | 258 | 4.8 | 4.8 | 0.00 | 0.00 | 0.00 | 61 | 1018.2 |
| 20260502040615 | 3 | 269 | 4.8 | 4.8 | 0.00 | 0.00 | 0.00 | 61 | 1017.8 |
| 20260502040112 | 3 | 269 | 4.8 | 4.8 | 0.00 | 0.00 | 0.00 | 60 | 1018.2 |
| 20260502035608 | 3 | 267 | 4.8 | 6.4 | 0.00 | 0.00 | 0.00 | 59 | 1018.2 |
| 20260502035105 | 3 | 274 | 4.8 | 4.8 | 0.00 | 0.00 | 0.00 | 60 | 1018.2 |
| 20260502034603 | 3 | 271 | 4.8 | 6.4 | 0.00 | 0.00 | 0.00 | 61 | 1018.2 |
| 20260502034101 | 3 | 269 | 4.8 | 6.4 | 0.00 | 0.00 | 0.00 | 62 | 1018.2 |
| 20260502033559 | 3 | 264 | 4.8 | 6.4 | 0.00 | 0.00 | 0.00 | 61 | 1018.3 |
| 20260502033056 | 3 | 269 | 4.8 | 6.4 | 0.00 | 0.00 | 0.00 | 62 | 1018.2 |
| 20260502032552 | 4 | 251 | 4.8 | 4.8 | 0.00 | 0.00 | 0.00 | 59 | 1018.1 |
| 20260502032049 | 5 | 274 | 3.2 | 4.8 | 0.00 | 0.00 | 0.00 | 55 | 1018.3 |
| 20260502031547 | 5 | 261 | 4.8 | 4.8 | 0.00 | 0.00 | 0.00 | 51 | 1018.1 |
| 20260502031044 | 6 | 292 | 0.0 | 1.6 | 0.00 | 0.00 | 0.00 | 48 | 1018.1 |
| 20260502030543 | 6 | 268 | 1.6 | 3.2 | 0.00 | 0.00 | 0.00 | 45 | 1018.3 |
| 20260502030040 | 6 | 268 | 3.2 | 3.2 | 0.00 | 0.00 | 0.00 | 44 | 1018.2 |
| 20260502025538 | 7 | 271 | 3.2 | 3.2 | 0.00 | 0.00 | 0.00 | 43 | 1018.2 |
| 20260502025036 | 7 | 289 | 3.2 | 4.8 | 0.00 | 0.00 | 0.00 | 41 | 1018.1 |
| 20260502024533 | 7 | 293 | 4.8 | 6.4 | 0.00 | 0.00 | 0.00 | 41 | 1018.1 |
| 20260502024032 | 7 | 296 | 6.4 | 8.0 | 0.00 | 0.00 | 0.00 | 41 | 1018.2 |
| 20260502023528 | 7 | 294 | 6.4 | 8.0 | 0.00 | 0.00 | 0.00 | 44 | 1018.2 |
| 20260502023026 | 7 | 287 | 4.8 | 6.4 | 0.00 | 0.00 | 0.00 | 45 | 1018.1 |
| 20260502022522 | 7 | 297 | 4.8 | 6.4 | 0.00 | 0.00 | 0.00 | 43 | 1018.2 |
| 20260502022020 | 7 | 295 | 4.8 | 6.4 | 0.00 | 0.00 | 0.00 | 41 | 1018.1 |
| 20260502021517 | 7 | 285 | 4.8 | 6.4 | 0.00 | 0.00 | 0.00 | 43 | 1018.1 |
| 20260502021014 | 7 | 303 | 6.4 | 6.4 | 0.00 | 0.00 | 0.00 | 43 | 1017.7 |
| 20260502020512 | 7 | 287 | 4.8 | 6.4 | 0.00 | 0.00 | 0.00 | 40 | 1017.8 |
| 20260502020008 | 8 | 316 | 6.4 | 6.4 | 0.00 | 0.00 | 0.00 | 38 | 1017.8 |
| 20260502015506 | 8 | 293 | 3.2 | 6.4 | 0.00 | 0.00 | 0.00 | 38 | 1017.9 |
| 20260502015002 | 8 | 303 | 4.8 | 6.4 | 0.00 | 0.00 | 0.00 | 37 | 1017.6 |
| 20260502014459 | 8 | 313 | 6.4 | 6.4 | 0.00 | 0.00 | 0.00 | 38 | 1017.4 |
| 20260502013956 | 8 | 342 | 6.4 | 6.4 | 0.00 | 0.00 | 0.00 | 38 | 1017.6 |
| 20260502013451 | 8 | 334 | 4.8 | 6.4 | 0.00 | 0.00 | 0.00 | 39 | 1017.5 |
| 20260502012948 | 8 | 295 | 3.2 | 4.8 | 0.00 | 0.00 | 0.00 | 38 | 1017.4 |
| 20260502012446 | 8 | 328 | 6.4 | 8.0 | 0.00 | 0.00 | 0.00 | 38 | 1017.4 |
| 20260502011943 | 8 | 35 | 3.2 | 6.4 | 0.00 | 0.00 | 0.00 | 37 | 1017.3 |
| 20260502011439 | 9 | 339 | 3.2 | 4.8 | 0.00 | 0.00 | 0.00 | 37 | 1017.5 |
| 20260502010936 | 10 | 336 | 3.2 | 6.4 | 0.00 | 0.00 | 0.00 | 36 | 1017.3 |
| 20260502010433 | 10 | 323 | 3.2 | 6.4 | 0.00 | 0.00 | 0.00 | 36 | 1017.4 |
| 20260502005929 | 10 | 1 | 3.2 | 8.0 | 0.00 | 0.00 | 0.00 | 36 | 1017.2 |
| 20260502005427 | 10 | 0 | 6.4 | 6.4 | 0.00 | 0.00 | 0.00 | 35 | 1017.5 |
| 20260502004925 | 10 | 347 | 4.8 | 6.4 | 0.00 | 0.00 | 0.00 | 35 | 1017.3 |
| 20260502004421 | 10 | 309 | 6.4 | 12.9 | 0.00 | 0.00 | 0.00 | 34 | 1017.3 |
| 20260502003918 | 10 | 329 | 8.0 | 12.9 | 0.00 | 0.00 | 0.00 | 35 | 1017.4 |
| 20260502003415 | 10 | 357 | 4.8 | 11.3 | 0.00 | 0.00 | 0.00 | 34 | 1017.4 |
| 20260502002911 | 10 | 345 | 8.0 | 12.9 | 0.00 | 0.00 | 0.00 | 34 | 1017.3 |
| 20260502002409 | 10 | 296 | 4.8 | 9.7 | 0.00 | 0.00 | 0.00 | 34 | 1017.3 |
| 20260502001906 | 10 | 336 | 12.9 | 14.5 | 0.00 | 0.00 | 0.00 | 34 | 1017.1 |
| 20260502001404 | 10 | 306 | 6.4 | 11.3 | 0.00 | 0.00 | 0.00 | 34 | 1017.1 |
| 20260502000901 | 10 | 8 | 9.7 | 17.7 | 0.00 | 0.00 | 0.00 | 35 | 1017.4 |
| 20260502000402 | 10 | 347 | 14.5 | 16.1 | 0.00 | 0.00 | 0.00 | 34 | 1017.2 |
| 20260501235855 | 10 | 5 | 11.3 | 20.9 | 0.00 | 0.00 | 0.00 | 34 | 1017.4 |
| 20260501235351 | 10 | 5 | 4.8 | 16.1 | 0.00 | 0.00 | 0.00 | 34 | 1017.4 |
| 20260501234846 | 11 | 2 | 6.4 | 17.7 | 0.00 | 0.00 | 0.00 | 32 | 1017.4 |
| 20260501234343 | 11 | 13 | 3.2 | 16.1 | 0.00 | 0.00 | 0.00 | 34 | 1017.3 |
| 20260501233842 | 11 | 296 | 4.8 | 22.5 | 0.00 | 0.00 | 0.00 | 32 | 1017.2 |
| 20260501233339 | 11 | 281 | 8.0 | 17.7 | 0.00 | 0.00 | 0.00 | 33 | 1017.1 |
| 20260501232834 | 11 | 302 | 11.3 | 25.7 | 0.00 | 0.00 | 0.00 | 32 | 1017.2 |
| 20260501232332 | 11 | 282 | 16.1 | 20.9 | 0.00 | 0.00 | 0.00 | 32 | 1017.2 |
| 20260501231829 | 11 | 313 | 11.3 | 11.3 | 0.00 | 0.00 | 0.00 | 32 | 1017.2 |
| 20260501231327 | 11 | 358 | 6.4 | 11.3 | 0.00 | 0.00 | 0.00 | 33 | 1017.2 |
| 20260501230825 | 11 | 346 | 11.3 | 17.7 | 0.00 | 0.00 | 0.00 | 31 | 1017.1 |
| 20260501230324 | 11 | 7 | 9.7 | 14.5 | 0.00 | 0.00 | 0.00 | 32 | 1017.2 |
| 20260501225821 | 11 | 341 | 9.7 | 19.3 | 0.00 | 0.00 | 0.00 | 33 | 1017.3 |
| 20260501225319 | 11 | 13 | 17.7 | 22.5 | 0.00 | 0.00 | 0.00 | 32 | 1017.1 |
| 20260501224815 | 11 | 333 | 3.2 | 8.0 | 0.00 | 0.00 | 0.00 | 33 | 1017.2 |
| 20260501224312 | 11 | 345 | 12.9 | 24.1 | 0.00 | 0.00 | 0.00 | 33 | 1017.3 |
| 20260501223808 | 11 | 298 | 9.7 | 20.9 | 0.00 | 0.00 | 0.00 | 32 | 1017.2 |
| 20260501223304 | 11 | 338 | 9.7 | 17.7 | 0.00 | 0.00 | 0.00 | 32 | 1017.3 |
| 20260501222800 | 11 | 281 | 9.7 | 16.1 | 0.00 | 0.00 | 0.00 | 31 | 1017.4 |
| 20260501222258 | 10 | 9 | 11.3 | 14.5 | 0.00 | 0.00 | 0.00 | 35 | 1017.3 |
| 20260501221754 | 10 | 359 | 9.7 | 17.7 | 0.00 | 0.00 | 0.00 | 34 | 1017.2 |
| 20260501221252 | 10 | 5 | 9.7 | 17.7 | 0.00 | 0.00 | 0.00 | 34 | 1017.2 |
| 20260501220750 | 10 | 0 | 14.5 | 19.3 | 0.00 | 0.00 | 0.00 | 34 | 1017.2 |
| 20260501220246 | 11 | 350 | 12.9 | 24.1 | 0.00 | 0.00 | 0.00 | 33 | 1017.4 |
| 20260501215743 | 11 | 352 | 6.4 | 14.5 | 0.00 | 0.00 | 0.00 | 32 | 1017.3 |
| 20260501215238 | 11 | 83 | 4.8 | 16.1 | 0.00 | 0.00 | 0.00 | 33 | 1017.2 |
| 20260501214734 | 11 | 254 | 8.0 | 20.9 | 0.00 | 0.00 | 0.00 | 34 | 1017.3 |
| 20260501214230 | 10 | 309 | 14.5 | 24.1 | 0.00 | 0.00 | 0.00 | 33 | 1017.2 |
| 20260501213726 | 10 | 349 | 6.4 | 19.3 | 0.00 | 0.00 | 0.00 | 36 | 1017.1 |
| 20260501213223 | 11 | 329 | 11.3 | 24.1 | 0.00 | 0.00 | 0.00 | 37 | 1017.1 |
| 20260501212719 | 10 | 342 | 4.8 | 19.3 | 0.00 | 0.00 | 0.00 | 35 | 1017.3 |
| 20260501212216 | 10 | 0 | 8.0 | 19.3 | 0.00 | 0.00 | 0.00 | 36 | 1017.5 |
| 20260501211712 | 10 | 327 | 16.1 | 17.7 | 0.00 | 0.00 | 0.00 | 36 | 1017.2 |
| 20260501211210 | 10 | 12 | 12.9 | 16.1 | 0.00 | 0.00 | 0.00 | 36 | 1017.3 |
| 20260501210707 | 10 | 22 | 14.5 | 19.3 | 0.00 | 0.00 | 0.00 | 35 | 1017.4 |
| 20260501210203 | 10 | 16 | 6.4 | 12.9 | 0.00 | 0.00 | 0.00 | 34 | 1017.5 |
| 20260501205659 | 10 | 1 | 8.0 | 20.9 | 0.00 | 0.00 | 0.00 | 37 | 1017.6 |
| 20260501205157 | 10 | 26 | 11.3 | 16.1 | 0.00 | 0.00 | 0.00 | 35 | 1017.4 |
| 20260501204654 | 11 | 8 | 11.3 | 19.3 | 0.00 | 0.00 | 0.00 | 35 | 1017.7 |
| 20260501204149 | 10 | 335 | 20.9 | 29.0 | 0.00 | 0.00 | 0.00 | 37 | 1017.6 |
| 20260501203646 | 9 | 357 | 9.7 | 14.5 | 0.00 | 0.00 | 0.00 | 37 | 1017.7 |
| 20260501203144 | 10 | 327 | 9.7 | 20.9 | 0.00 | 0.00 | 0.00 | 36 | 1017.7 |
| 20260501202641 | 10 | 346 | 8.0 | 12.9 | 0.00 | 0.00 | 0.00 | 36 | 1017.6 |
| 20260501202137 | 9 | 12 | 8.0 | 14.5 | 0.00 | 0.00 | 0.00 | 37 | 1017.8 |
| 20260501201634 | 9 | 350 | 4.8 | 19.3 | 0.00 | 0.00 | 0.00 | 38 | 1017.6 |
| 20260501201131 | 10 | 12 | 16.1 | 24.1 | 0.00 | 0.00 | 0.00 | 37 | 1017.6 |
| 20260501200628 | 11 | 20 | 9.7 | 16.1 | 0.00 | 0.00 | 0.00 | 36 | 1017.8 |